When you browse on this site, cookies collect data to enhance your experience and personalize the content and advertising you see.
Visit our Privacy Policy to learn more. By continuing to use the site, you agree to this use of cookies and data.
  • In Hungary
  • List of Countries
  • For 7 days
  • Water Temperature
  • Weather Map
  • News
  • Weather Widgets
  • user-avatar
    Login

    Hourly Weather Kyabé

    Today, 15 November, Friday

    Time Temperature Precipitation Wind Pressure Humidity
    00:00 +27°C° 0 mm 0 mps 721 mmHg 32%
    01:00 +27°C° 0 mm 0 mps 721 mmHg 33%
    02:00 +26°C° 0 mm 0 mps 721 mmHg 35%
    03:00 +25°C° 0 mm 0 mps 721 mmHg 37%
    04:00 +25°C° 0 mm 0 mps 721 mmHg 39%
    05:00 +25°C° 0 mm 0 mps 722 mmHg 39%
    06:00 +26°C° 0 mm 0 mps 722 mmHg 39%
    07:00 +27°C° 0 mm 0 mps 723 mmHg 37%
    08:00 +31°C° 0 mm 1 mps 723 mmHg 33%
    09:00 +34°C° 0 mm 1 mps 723 mmHg 28%
    10:00 +36°C° 0 mm 1 mps 724 mmHg 23%
    11:00 +38°C° 0 mm 2 mps 723 mmHg 21%
    12:00 +39°C° 0 mm 2 mps 722 mmHg 19%
    13:00 +40°C° 0 mm 3 mps 721 mmHg 17%
    14:00 +39°C° 0 mm 3 mps 720 mmHg 18%
    15:00 +39°C° 0 mm 2 mps 720 mmHg 19%
    16:00 +38°C° 0 mm 2 mps 719 mmHg 19%
    17:00 +36°C° 0 mm 2 mps 719 mmHg 21%
    18:00 +33°C° 0 mm 1 mps 720 mmHg 23%
    19:00 +31°C° 0 mm 1 mps 720 mmHg 25%
    20:00 +31°C° 0 mm 1 mps 721 mmHg 25%
    21:00 +30°C° 0 mm 1 mps 721 mmHg 26%
    22:00 +29°C° 0 mm 1 mps 721 mmHg 26%
    23:00 +29°C° 0 mm 1 mps 720 mmHg 27%

    Tomorrow, 16 November, Saturday

    Time Temperature Precipitation Wind Pressure Humidity
    00:00 +28°C° 0 mm 1 mps 720 mmHg 28%
    01:00 +28°C° 0 mm 1 mps 720 mmHg 29%
    02:00 +27°C° 0 mm 1 mps 720 mmHg 30%
    03:00 +27°C° 0 mm 1 mps 720 mmHg 31%
    04:00 +26°C° 0 mm 1 mps 720 mmHg 32%
    05:00 +27°C° 0 mm 1 mps 720 mmHg 32%
    06:00 +27°C° 0 mm 1 mps 721 mmHg 33%
    07:00 +28°C° 0 mm 1 mps 721 mmHg 33%
    08:00 +31°C° 0 mm 2 mps 722 mmHg 28%
    09:00 +35°C° 0 mm 2 mps 722 mmHg 24%
    10:00 +37°C° 0 mm 2 mps 722 mmHg 19%
    11:00 +39°C° 0 mm 2 mps 721 mmHg 17%
    12:00 +40°C° 0 mm 2 mps 720 mmHg 15%
    13:00 +42°C° 0 mm 3 mps 720 mmHg 14%
    14:00 +40°C° 0 mm 2 mps 719 mmHg 14%
    15:00 +40°C° 0 mm 2 mps 719 mmHg 15%
    16:00 +39°C° 0 mm 2 mps 718 mmHg 16%
    17:00 +37°C° 0 mm 2 mps 719 mmHg 18%
    18:00 +35°C° 0 mm 2 mps 719 mmHg 20%
    19:00 +31°C° 0 mm 1 mps 719 mmHg 23%
    20:00 +31°C° 0 mm 1 mps 719 mmHg 24%
    21:00 +30°C° 0 mm 1 mps 720 mmHg 25%
    22:00 +29°C° 0 mm 1 mps 720 mmHg 26%
    23:00 +29°C° 0 mm 1 mps 720 mmHg 27%

    Day after tomorrow, 17 November, Sunday

    Time Temperature Precipitation Wind Pressure Humidity
    00:00 +28°C° 0 mm 1 mps 720 mmHg 27%
    01:00 +28°C° 0 mm 1 mps 720 mmHg 28%
    02:00 +27°C° 0 mm 1 mps 720 mmHg 28%
    03:00 +27°C° 0 mm 1 mps 720 mmHg 29%
    04:00 +26°C° 0 mm 1 mps 720 mmHg 30%
    05:00 +27°C° 0 mm 1 mps 720 mmHg 30%
    06:00 +27°C° 0 mm 1 mps 721 mmHg 31%
    07:00 +27°C° 0 mm 1 mps 721 mmHg 32%
    08:00 +30°C° 0 mm 1 mps 722 mmHg 28%
    09:00 +33°C° 0 mm 1 mps 722 mmHg 24%
    10:00 +37°C° 0 mm 2 mps 722 mmHg 20%
    11:00 +38°C° 0 mm 2 mps 721 mmHg 19%
    12:00 +39°C° 0 mm 2 mps 721 mmHg 17%
    13:00 +40°C° 0 mm 2 mps 720 mmHg 16%
    14:00 +40°C° 0 mm 2 mps 720 mmHg 16%
    15:00 +39°C° 0 mm 2 mps 719 mmHg 17%
    16:00 +39°C° 0 mm 1 mps 719 mmHg 17%
    17:00 +36°C° 0 mm 1 mps 719 mmHg 19%
    18:00 +33°C° 0 mm 1 mps 720 mmHg 22%
    19:00 +31°C° 0 mm 1 mps 720 mmHg 24%
    20:00 +30°C° 0 mm 1 mps 720 mmHg 25%
    21:00 +30°C° 0 mm 1 mps 720 mmHg 25%
    22:00 +29°C° 0 mm 1 mps 721 mmHg 26%
    23:00 +27°C° 0 mm 0 mps 720 mmHg 27%

    18 November, Monday

    Time Temperature Precipitation Wind Pressure Humidity
    00:00 +26°C° 0 mm 0 mps 720 mmHg 28%
    01:00 +26°C° 0 mm 0 mps 720 mmHg 28%
    02:00 +27°C° 0 mm 1 mps 720 mmHg 29%
    03:00 +27°C° 0 mm 1 mps 720 mmHg 29%
    04:00 +27°C° 0 mm 1 mps 720 mmHg 30%
    05:00 +27°C° 0 mm 1 mps 721 mmHg 31%
    06:00 +27°C° 0 mm 1 mps 722 mmHg 32%
    07:00 +28°C° 0 mm 1 mps 722 mmHg 33%
    08:00 +30°C° 0 mm 1 mps 722 mmHg 29%
    09:00 +34°C° 0 mm 2 mps 722 mmHg 25%
    10:00 +37°C° 0 mm 2 mps 723 mmHg 21%
    11:00 +38°C° 0 mm 2 mps 722 mmHg 20%
    12:00 +39°C° 0 mm 2 mps 721 mmHg 18%
    13:00 +40°C° 0 mm 2 mps 720 mmHg 17%
    14:00 +40°C° 0 mm 2 mps 720 mmHg 17%
    15:00 +39°C° 0 mm 2 mps 720 mmHg 17%
    16:00 +39°C° 0 mm 1 mps 720 mmHg 17%
    17:00 +36°C° 0 mm 1 mps 720 mmHg 20%
    18:00 +33°C° 0 mm 1 mps 720 mmHg 23%
    19:00 +29°C° 0 mm 0 mps 720 mmHg 26%
    20:00 +29°C° 0 mm 0 mps 721 mmHg 27%
    21:00 +28°C° 0 mm 0 mps 721 mmHg 28%
    22:00 +28°C° 0 mm 0 mps 722 mmHg 29%
    23:00 +29°C° 0 mm 1 mps 721 mmHg 29%

    19 November, Tuesday

    Time Temperature Precipitation Wind Pressure Humidity
    00:00 +29°C° 0 mm 1 mps 721 mmHg 30%
    01:00 +28°C° 0 mm 1 mps 721 mmHg 30%
    02:00 +27°C° 0 mm 1 mps 721 mmHg 32%
    03:00 +27°C° 0 mm 1 mps 721 mmHg 33%
    04:00 +26°C° 0 mm 1 mps 721 mmHg 35%
    05:00 +26°C° 0 mm 1 mps 722 mmHg 34%
    06:00 +27°C° 0 mm 1 mps 722 mmHg 34%
    07:00 +27°C° 0 mm 2 mps 723 mmHg 34%
    08:00 +30°C° 0 mm 2 mps 723 mmHg 29%
    09:00 +34°C° 0 mm 2 mps 723 mmHg 24%
    10:00 +37°C° 0 mm 3 mps 723 mmHg 19%
    11:00 +38°C° 0 mm 3 mps 723 mmHg 17%
    12:00 +39°C° 0 mm 2 mps 722 mmHg 16%
    13:00 +40°C° 0 mm 2 mps 721 mmHg 15%
    14:00 +40°C° 0 mm 2 mps 721 mmHg 15%
    15:00 +39°C° 0 mm 2 mps 720 mmHg 15%
    16:00 +39°C° 0 mm 2 mps 720 mmHg 15%
    17:00 +36°C° 0 mm 1 mps 720 mmHg 17%
    18:00 +33°C° 0 mm 1 mps 720 mmHg 19%
    19:00 +31°C° 0 mm 1 mps 721 mmHg 21%
    20:00 +30°C° 0 mm 1 mps 721 mmHg 21%
    21:00 +29°C° 0 mm 1 mps 721 mmHg 22%
    22:00 +28°C° 0 mm 1 mps 722 mmHg 23%
    23:00 +28°C° 0 mm 1 mps 721 mmHg 24%

    20 November, Wednesday

    Time Temperature Precipitation Wind Pressure Humidity
    00:00 +27°C° 0 mm 1 mps 721 mmHg 25%
    01:00 +27°C° 0 mm 1 mps 721 mmHg 26%
    02:00 +26°C° 0 mm 1 mps 721 mmHg 27%
    03:00 +26°C° 0 mm 1 mps 721 mmHg 29%
    04:00 +25°C° 0 mm 1 mps 721 mmHg 30%
    05:00 +26°C° 0 mm 1 mps 722 mmHg 30%
    06:00 +26°C° 0 mm 1 mps 722 mmHg 30%
    07:00 +27°C° 0 mm 1 mps 723 mmHg 30%
    08:00 +30°C° 0 mm 1 mps 723 mmHg 26%
    09:00 +34°C° 0 mm 2 mps 723 mmHg 22%
    10:00 +37°C° 0 mm 2 mps 723 mmHg 18%
    11:00 +38°C° 0 mm 2 mps 723 mmHg 16%
    12:00 +39°C° 0 mm 2 mps 722 mmHg 15%
    13:00 +40°C° 0 mm 2 mps 721 mmHg 13%
    14:00 +40°C° 0 mm 2 mps 721 mmHg 13%
    15:00 +39°C° 0 mm 2 mps 720 mmHg 13%
    16:00 +39°C° 0 mm 2 mps 720 mmHg 13%
    17:00 +36°C° 0 mm 2 mps 720 mmHg 15%
    18:00 +33°C° 0 mm 1 mps 720 mmHg 18%
    19:00 +30°C° 0 mm 1 mps 720 mmHg 20%
    20:00 +30°C° 0 mm 1 mps 721 mmHg 20%
    21:00 +29°C° 0 mm 1 mps 721 mmHg 20%
    22:00 +28°C° 0 mm 1 mps 721 mmHg 20%
    23:00 +28°C° 0 mm 1 mps 721 mmHg 21%
    Show more